CZ-3B DEB, 40189

Orbit data source: Space-Track

CZ-3B DEB, 40189 is space debris in HEO originally from a launch on Mon, 19 Dec 2011 UTC launched from the Xichang Space Center, China (XSC). Debris objects in space refer to the collection of defunct objects orbiting the Earth. Examples of debris include non-operational satellites, rocket bodies, and fragments generated from explosions, collisions, or faulty payload assembly.

Loading next visibility...
Identifier
40189, 2011-077N
Orbit
HEO
Country
Flag of CNCN / PRC
Related business
Manufacturer
CALT
Mission
Spacecraft
Bus & Motor
Unknown
Mass
Unknown
Launch date (UTC)
2011-12-19 (14 years ago)
Launch vehicle
Unknown
Launch site
Xichang Space Center, China (XSC)
Object type
Payload
Rocket body
Debris
Shape & HBR
Unknown shape, 0.4 m
Radar Cross Section
Large (>1 m²)

Expand to show TLE details & history
Last TLE update: 2 months ago

TLE from 2 months ago
0 CZ-3B DEB
1 40189U 11077N   25233.67725607 -.00000027  00000-0  77836-2 0  9996
2 40189  26.3510  94.9637 7342689 222.2996  48.6995  1.90403573 88627
Epoch: 2025-08-21T16:15Z
TLE epoch observation values (Epoch: 2025-08-21T16:15:14.924Z)
Latitude
-0.00001°
Longitude
-118.94414°
Altitude
21,362.667 km
Speed
3.774 km/s
True Right ascension
06h 20m 25s
True Declination
0° 00' 00"
Sunlit
Object was in daylight at epoch
Visualization orbit readout
Latitude
Unknown
Longitude
Unknown
Altitude
Unknown
Speed
Unknown
Apparent Right ascension
Unknown
Apparent Declination
Unknown
Sunlit
N/A
Visualization observer readout
Local Sidereal Time
01:09:37
Azimuth
Unknown
Elevation
Unknown
Doppler factor
Unknown
Orbital elements
Apogee altitude
41,315.318 km
Perigee altitude
929.631 km
Semi-major axis
27,500.611 km
Eccentricity
0.73427
Inclination
26.351°
RAAN
94.9637°
Arg. of periapsis
222.2996°
True anomaly
137.76311°
Mean anomaly
48.6995°
Eccentric anomaly
90.76625°
Mean motion
0.47592 °/min
Orbital period
756.44 mins
BSTAR
0.0077836
Loading maneuver chart data...
Computing Atmospheric mass density...
Loading historical data...
Loading historical data...
Loading historical data...
Loading historical data...
Loading historical data...
Loading historical data...
Loading historical data...

Documentation

Showing up to 5 results
|